DELTA 4 R/B, 41746

Orbit data source: Space-Track

DELTA 4 R/B, 41746 is space debris in GEO originally from a launch on Fri, 19 Aug 2016 UTC launched from the Air Force Eastern Test Range (AFETR). Debris objects in space refer to the collection of defunct objects orbiting the Earth. Examples of debris include non-operational satellites, rocket bodies, and fragments generated from explosions, collisions, or faulty payload assembly.

Not visible in the next 10 days
Identifier
41746, 2016-052C
Orbit
GEO
Country
Flag of USUS
Related business
Flag of USUnited Launch Alliance/Lockheed Martin (US)
Manufacturer
ULA Decatur
Mission
Spacecraft
Bus & Motor
DCSS-4, RL10B-2
Mass
2,850 kg wet, 2,850 kg dry
Launch date (UTC)
2016-08-19 (10 years ago)
Launch vehicle
Unknown
Launch site
Air Force Eastern Test Range (AFETR)
Object type
Payload
Rocket body
Debris
Shape & HBR
Cyl + 1 Nozzle, 6.0 m
Radar Cross Section
43.982 m²

Expand to show TLE details & history
Last TLE update: 12 hours ago

TLE from 12 hours ago
0 DELTA 4 R/B
1 41746U 16052C   26127.17091204 -.00000249  00000-0  00000-0 0  9994
2 41746   8.6192  58.3484 0007222 331.8247  28.0272  0.98994522 25278
Epoch: 2026-05-07T04:06Z
TLE epoch observation values (Epoch: 2026-05-07T04:06:06.800Z)
Latitude
0.00001°
Longitude
131.68867°
Altitude
36,120.781 km
Speed
3.064 km/s
True Right ascension
03h 52m 57s
True Declination
0° 00' 00"
Sunlit
Object was in daylight at epoch
Visualization orbit readout
Latitude
Unknown
Longitude
Unknown
Altitude
Unknown
Speed
Unknown
Apparent Right ascension
Unknown
Apparent Declination
Unknown
Sunlit
N/A
Visualization observer readout
Local Sidereal Time
00:31:49
Azimuth
Unknown
Elevation
Unknown
Doppler factor
Unknown
Orbital elements
Apogee altitude
36,180.243 km
Perigee altitude
36,118.816 km
Semi-major axis
42,527.666 km
Eccentricity
0.00072
Inclination
8.6192°
RAAN
58.3484°
Arg. of periapsis
331.8247°
True anomaly
28.06612°
Mean anomaly
28.0272°
Eccentric anomaly
28.04666°
Mean motion
0.24748 °/min
Orbital period
1,454.68 mins
BSTAR
0
Loading maneuver chart data...
Computing Atmospheric mass density...
Loading historical data...
Loading historical data...
Loading historical data...
Loading historical data...
Loading historical data...
Loading historical data...
Loading historical data...
Other satellites on launch #52 in the year 2016 (2016-08-19 UTC)

Documentation

Showing up to 5 results
|